EW9362 Weather Reports


time (UTC)temp
F
wind
direction
speed
knots
gust
knots
rain 1hr
in
rain 24hr
in
rain mn
in
humidity
%
barometer
mb
20260504003527 60 0 0.9 3.5 0.00 0.00 0.00 48 1013.6
20260504003045 60 179 0.9 3.5 0.00 0.00 0.00 47 1013.6
20260504002527 61 195 0.0 5.2 0.00 0.00 0.00 46 1013.5
20260504002027 61 195 0.9 5.2 0.00 0.00 0.00 46 1013.5
20260504001544 62 0 0.0 3.5 0.00 0.00 0.00 45 1013.6
20260504001027 62 0 0.0 3.5 0.00 0.00 0.00 44 1013.5
20260504000527 62 0 0.0 5.2 0.00 0.00 0.00 44 1013.3
20260504000046 63 0 0.9 5.2 0.00 0.00 0.00 43 1013.3
20260503235529 63 184 0.9 5.2 0.00 0.00 0.00 43 1013.4
20260503235027 64 0 0.0 6.1 0.00 0.00 0.00 42 1013.4
20260503234542 64 217 0.0 6.1 0.00 0.00 0.00 41 1013.4
20260503234029 64 241 2.6 7.8 0.00 0.00 0.00 42 1013.4
20260503233529 64 0 1.7 10.4 0.00 0.00 0.00 42 1013.4
20260503233047 64 0 1.7 10.4 0.00 0.00 0.00 41 1013.4
20260503232527 65 146 1.7 6.1 0.00 0.00 0.00 41 1013.5
20260503232027 65 0 0.9 9.6 0.00 0.00 0.00 40 1013.5
20260503231549 64 253 1.7 10.4 0.00 0.00 0.00 40 1013.6
20260503231028 64 166 0.9 10.4 0.00 0.00 0.00 40 1013.6
20260503230528 64 221 2.6 10.4 0.00 0.00 0.00 39 1013.8
20260503230052 64 243 1.7 7.8 0.00 0.00 0.00 38 1013.8
20260503225527 64 246 1.7 7.0 0.00 0.00 0.00 39 1014.0
20260503225027 64 222 0.9 5.2 0.00 0.00 0.00 39 1014.1
20260503224541 64 0 0.0 8.7 0.00 0.00 0.00 40 1014.3
20260503224027 64 94 0.0 8.7 0.00 0.00 0.00 39 1014.3
20260503223530 64 131 2.6 8.7 0.00 0.00 0.00 39 1014.4
20260503223043 65 0 0.0 8.7 0.00 0.00 0.00 39 1014.5
20260503222527 65 186 0.9 8.7 0.00 0.00 0.00 38 1014.7
20260503222029 65 239 2.6 11.3 0.00 0.00 0.00 35 1014.8
20260503221551 66 233 2.6 11.3 0.00 0.00 0.00 36 1014.6
20260503221027 66 9 0.9 11.3 0.00 0.00 0.00 36 1014.4
20260503220531 66 0 0.9 5.2 0.00 0.00 0.00 36 1014.4
20260503220047 66 187 0.9 6.1 0.00 0.00 0.00 36 1014.8
20260503215532 65 147 1.7 7.0 0.00 0.00 0.00 34 1015.0
20260503215031 66 312 0.0 8.7 0.00 0.00 0.00 35 1015.1
20260503214544 66 88 1.7 8.7 0.00 0.00 0.00 35 1015.0
20260503214033 65 0 2.6 8.7 0.00 0.00 0.00 35 1015.2
20260503213531 66 75 1.7 8.7 0.00 0.00 0.00 37 1015.4
20260503213059 66 0 1.7 10.4 0.00 0.00 0.00 36 1015.5
20260503212530 66 56 0.9 10.4 0.00 0.00 0.00 36 1015.6
20260503212032 66 133 0.9 6.1 0.00 0.00 0.00 35 1015.5
20260503211542 65 323 0.9 7.8 0.00 0.00 0.00 34 1015.4
20260503211031 65 143 0.9 7.8 0.00 0.00 0.00 36 1015.4
20260503210533 64 0 3.5 14.8 0.00 0.00 0.00 34 1015.2
20260503210055 65 71 2.6 14.8 0.00 0.00 0.00 35 1015.5
20260503205529 64 152 5.2 14.8 0.00 0.00 0.00 35 1015.6
20260503205029 65 221 0.9 7.0 0.00 0.00 0.00 37 1015.8
20260503204552 64 0 0.9 7.8 0.00 0.00 0.00 35 1015.7
20260503204031 64 81 2.6 7.8 0.00 0.00 0.00 36 1015.8
20260503203531 66 285 1.7 7.8 0.00 0.00 0.00 34 1015.8
20260503203043 65 194 0.9 7.8 0.00 0.00 0.00 34 1016.0
20260503202532 65 250 1.7 7.8 0.00 0.00 0.00 35 1016.0
20260503202029 65 258 0.9 4.3 0.00 0.00 0.00 34 1016.0
20260503201542 65 157 1.7 7.8 0.00 0.00 0.00 34 1016.2
20260503201031 65 0 1.7 7.8 0.00 0.00 0.00 35 1016.3
20260503200529 65 150 0.9 7.0 0.00 0.00 0.00 34 1016.2
20260503200044 64 314 1.7 7.0 0.00 0.00 0.00 33 1016.4
20260503195529 64 0 0.9 7.0 0.00 0.00 0.00 36 1016.6
20260503195031 64 127 1.7 5.2 0.00 0.00 0.00 34 1016.8
20260503194547 65 264 0.0 6.1 0.00 0.00 0.00 34 1017.0
20260503194029 64 46 1.7 7.0 0.00 0.00 0.00 35 1017.1
20260503193529 64 231 1.7 7.0 0.00 0.00 0.00 32 1017.3
20260503193053 64 36 1.7 9.6 0.00 0.00 0.00 36 1017.5
20260503192531 64 276 1.7 9.6 0.00 0.00 0.00 34 1017.7
20260503192031 63 145 4.3 9.6 0.00 0.00 0.00 34 1017.6
20260503191544 63 134 4.3 9.6 0.00 0.00 0.00 34 1017.7
20260503191028 63 108 1.7 6.1 0.00 0.00 0.00 33 1017.7
20260503190532 64 131 0.9 6.1 0.00 0.00 0.00 33 1017.7
20260503190043 64 207 0.9 13.0 0.00 0.00 0.00 37 1017.9
20260503185531 64 248 0.9 13.0 0.00 0.00 0.00 34 1018.1
20260503185028 64 212 0.9 5.2 0.00 0.00 0.00 33 1018.1
20260503184552 63 48 1.7 6.1 0.00 0.00 0.00 36 1018.1
20260503184031 63 176 1.7 7.0 0.00 0.00 0.00 34 1018.3
20260503183532 62 50 1.7 7.8 0.00 0.00 0.00 36 1018.3
20260503183102 62 181 4.3 7.8 0.00 0.00 0.00 33 1018.4
20260503182528 63 191 0.9 10.4 0.00 0.00 0.00 33 1018.4
20260503182030 62 143 2.6 10.4 0.00 0.00 0.00 37 1018.4
20260503181547 63 148 0.9 4.3 0.00 0.00 0.00 34 1018.5
20260503181029 63 210 1.7 6.1 0.00 0.00 0.00 35 1018.6
20260503180529 62 179 0.9 7.0 0.00 0.00 0.00 34 1018.6
20260503180047 62 294 2.6 10.4 0.00 0.00 0.00 36 1018.7
20260503175532 62 151 2.6 10.4 0.00 0.00 0.00 36 1018.6
20260503175031 62 191 0.0 13.0 0.00 0.00 0.00 36 1018.8
20260503174544 61 272 6.1 13.0 0.00 0.00 0.00 36 1018.7
20260503174032 62 155 0.0 11.3 0.00 0.00 0.00 37 1018.7
20260503173532 61 188 4.3 11.3 0.00 0.00 0.00 37 1018.9
20260503173112 61 224 3.5 9.6 0.00 0.00 0.00 35 1019.1
20260503172535 62 225 2.6 6.1 0.00 0.00 0.00 33 1019.2
20260503172031 61 203 0.9 11.3 0.00 0.00 0.00 36 1019.3
20260503171549 60 161 0.9 11.3 0.00 0.00 0.00 37 1019.5
20260503171029 60 58 5.2 11.3 0.00 0.00 0.00 36 1019.6
20260503170529 60 101 1.7 10.4 0.00 0.00 0.00 35 1019.6
20260503150529 56 212 3.5 7.8 0.00 0.00 0.00 45 1020.8
20260503131028 50 146 0.9 6.1 0.00 0.00 0.00 59 1020.9
20260503130528 49 162 1.7 6.1 0.00 0.00 0.00 60 1020.7
20260503110528 39 196 0.9 3.5 0.00 0.00 0.00 79 1019.9
20260503081547 36 0 0.0 0.9 0.00 0.00 0.00 86 1019.4
20260503081031 36 0 0.0 0.9 0.00 0.00 0.00 86 1019.5
20260503080529 36 0 0.0 0.0 0.00 0.00 0.00 86 1019.5
20260503072529 37 0 0.0 0.0 0.00 0.00 0.00 86 1019.1
20260503072031 37 0 0.0 0.9 0.00 0.00 0.00 85 1019.1
20260503071548 37 0 0.0 0.9 0.00 0.00 0.00 85 1019.1
20260503071031 37 138 0.0 0.9 0.00 0.00 0.00 85 1019.2
20260503070530 36 0 0.0 0.0 0.00 0.00 0.00 87 1019.2
20260503055029 37 0 0.0 0.0 0.00 0.00 0.00 83 1019.4
20260503054545 38 0 0.0 0.0 0.00 0.00 0.00 83 1019.4
20260503054035 38 0 0.0 0.0 0.00 0.00 0.00 83 1019.4
20260503053533 39 0 0.0 0.0 0.00 0.00 0.00 83 1019.4
20260503053045 39 0 0.0 0.0 0.00 0.00 0.00 82 1019.3
20260503052531 39 0 0.0 0.9 0.00 0.00 0.00 81 1019.3
20260503052031 40 0 0.0 0.9 0.00 0.00 0.00 81 1019.3
20260503051545 40 0 0.0 0.9 0.00 0.00 0.00 80 1019.2
20260503051030 40 0 0.0 0.0 0.00 0.00 0.00 80 1019.3
20260503050530 40 0 0.0 0.0 0.00 0.00 0.00 81 1019.3
20260503050045 40 0 0.0 0.0 0.00 0.00 0.00 80 1019.5
20260503045528 40 0 0.0 0.0 0.00 0.00 0.00 81 1019.4
20260503045029 41 0 0.0 0.0 0.00 0.00 0.00 80 1019.5
20260503044542 41 0 0.0 0.0 0.00 0.00 0.00 79 1019.3
20260503044030 41 0 0.0 0.0 0.00 0.00 0.00 78 1019.4
20260503043530 41 0 0.0 0.0 0.00 0.00 0.00 78 1019.3
20260503043043 42 0 0.0 0.0 0.00 0.00 0.00 77 1019.3
20260503042528 42 0 0.0 0.0 0.00 0.00 0.00 78 1019.3
20260503042028 42 0 0.0 0.0 0.00 0.00 0.00 76 1019.3
20260503041553 43 0 0.0 0.0 0.00 0.00 0.00 76 1019.4
20260503041031 43 0 0.0 0.0 0.00 0.00 0.00 75 1019.3
20260503040530 43 0 0.0 0.0 0.00 0.00 0.00 75 1019.2
20260503040055 43 0 0.0 0.0 0.00 0.00 0.00 74 1019.4
20260503035528 43 0 0.0 0.0 0.00 0.00 0.00 71 1019.3
20260503035028 43 0 0.0 0.0 0.00 0.00 0.00 70 1019.2
20260503034559 44 0 0.0 0.0 0.00 0.00 0.00 71 1019.4
20260503034028 45 0 0.0 0.0 0.00 0.00 0.00 67 1019.3
20260503033528 45 0 0.0 0.9 0.00 0.00 0.00 66 1019.2
20260503033045 45 0 0.0 0.9 0.00 0.00 0.00 65 1019.2
20260503032528 45 0 0.0 0.0 0.00 0.00 0.00 66 1019.1
20260503032028 45 0 0.0 0.0 0.00 0.00 0.00 66 1019.1
20260503031544 46 0 0.0 0.0 0.00 0.00 0.00 66 1018.9
20260503031028 46 0 0.0 0.9 0.00 0.00 0.00 66 1019.1
20260503030527 47 0 0.0 0.9 0.00 0.00 0.00 63 1019.1
20260503030053 47 79 0.0 0.0 0.00 0.00 0.00 63 1018.9
20260503025527 47 0 0.0 0.9 0.00 0.00 0.00 63 1018.9
20260503025031 48 0 0.0 0.9 0.00 0.00 0.00 62 1019.0
20260503024546 48 0 0.0 1.7 0.00 0.00 0.00 64 1018.9
20260503024031 49 0 0.0 1.7 0.00 0.00 0.00 62 1018.8
20260503023528 49 32 0.0 2.6 0.00 0.00 0.00 61 1018.8
20260503023043 49 74 0.0 2.6 0.00 0.00 0.00 61 1018.7
20260503022528 49 50 0.0 2.6 0.00 0.00 0.00 63 1018.6
20260503022029 49 0 0.0 1.7 0.00 0.00 0.00 62 1018.7
20260503021543 50 0 0.0 1.7 0.00 0.00 0.00 62 1018.6
20260503021028 50 0 0.0 2.6 0.00 0.00 0.00 63 1018.4
20260503020530 50 73 0.0 2.6 0.00 0.00 0.00 62 1018.4
20260503020047 50 52 0.0 2.6 0.00 0.00 0.00 61 1018.3
20260503015527 50 0 0.0 2.6 0.00 0.00 0.00 63 1018.1
20260503015027 50 81 0.0 0.9 0.00 0.00 0.00 64 1018.1
20260503014549 50 75 0.0 1.7 0.00 0.00 0.00 63 1018.1
20260503014028 50 0 0.0 1.7 0.00 0.00 0.00 67 1018.0
20260503013528 49 29 0.0 1.7 0.00 0.00 0.00 66 1017.9
20260503013045 49 0 0.0 0.0 0.00 0.00 0.00 72 1017.9
20260503012531 49 0 0.0 0.0 0.00 0.00 0.00 71 1017.8
20260503012030 49 0 0.0 0.0 0.00 0.00 0.00 70 1017.8
20260503011541 49 0 0.0 0.0 0.00 0.00 0.00 70 1017.6
20260503011030 50 0 0.0 0.0 0.00 0.00 0.00 72 1017.6
20260503010529 50 0 0.0 0.0 0.00 0.00 0.00 72 1017.5
20260503010046 50 0 0.0 0.0 0.00 0.00 0.00 70 1017.5
20260503005528 50 0 0.0 0.0 0.00 0.00 0.00 73 1017.5
20260503005027 50 0 0.0 0.0 0.00 0.00 0.00 70 1017.5
20260503004546 50 0 0.0 0.0 0.00 0.00 0.00 69 1017.5
20260503004032 50 0 0.0 0.0 0.00 0.00 0.00 68 1017.4